Flag for Germany Weather past 2 weeks in Plauen, Saxony, Germany

Now
29 °F

Light snow. Low clouds.


Feels Like: 29 °F
Forecast: 28 / 36 °F
Wind: 2 mph from West

Location: Hof

Current Time: Feb 1, 2015 at 5:55:36 PM

Latest Report: Feb 1, 2015 at 5:00 PM


Visibility: 2 mi

Pressure: 29.32 "Hg

Humidity: 98%

Dew point: 29 °F

Location of PlauenLocation

Historic Weather in Plauen — Graph

°F

Plauen temperature yesterday

Maximum temperature yesterday: 30 °F (at 3:00 PM)
Minimum temperature yesterday: 21 °F (at 1:00 AM)
Average temperature yesterday: 27 °F

Past Weeks' High & Low Weather Summary

 TemperatureHumidityPressure
High34 °F (Jan 17, 5:00 PM)100% (Jan 22, 7:00 AM)30.37 "Hg (Jan 22, 7:00 AM)
Low21 °F (Jan 31, 1:00 AM)70% (Jan 21, 1:00 PM)28.70 "Hg (Jan 30, 5:00 AM)
Average29 °F94%29.83 "Hg
* Reported Jan 17 5:00 PM — Feb 1 5:00 PM, Plauen, Weather by CustomWeather, © 2014

Note: Actual official high and low records may vary slightly from our data, if they occured in-between our weather recording intervals... More about our weather records

Advertising

Plauen weather history for previous 24 hours

 ConditionsComfort  
Time TempWeatherWind HumidityBarometerVisibility
5:00 PM
Feb 1
29 °FLight snow. Low clouds.2 mph98%29.32 "Hg2 mi
3:00 PM29 °FLight snow. Low clouds.3 mph94%29.29 "Hg2 mi
2:00 PM29 °FLow clouds.2 mph88%29.26 "Hg14 mi
1:00 PM29 °FSnow flurries. Low clouds.3 mph86%29.26 "Hg15 mi
12:00 PM30 °FLight snow. Low clouds.3 mph83%29.26 "Hg11 mi
11:00 AM30 °FOvercast.5 mph83%29.23 "Hg14 mi
9:00 AM27 °FLow clouds.2 mph92%29.23 "Hg7 mi
8:00 AM26 °FPartly sunny.1 mph95%29.23 "Hg9 mi
7:00 AM28 °FOvercast.1 mph89%29.21 "Hg19 mi
6:00 AM29 °FLow clouds.2 mph90%29.18 "Hg16 mi
5:00 AM29 °FLow clouds.2 mph93%29.18 "Hg11 mi
3:00 AM29 °FSnow flurries. Low clouds.3 mph97%29.18 "Hg2 mi
2:00 AM28 °FLight snow. Low clouds.3 mph97%29.18 "Hg1 mi
1:00 AM28 °FLight snow. Low clouds.3 mph96%29.18 "Hg2 mi
12:00 AM29 °FLight snow. Low clouds.3 mph95%29.18 "Hg1 mi
11:00 PM
Jan 31
28 °FLight snow. Low clouds.2 mph95%29.18 "Hg5 mi
9:00 PM28 °FLow clouds.3 mph93%29.18 "Hg9 mi
8:00 PM29 °FLow clouds.3 mph91%29.15 "Hg12 mi
7:00 PM29 °FLow clouds.2 mph90%29.15 "Hg9 mi
6:00 PM29 °FOvercast.2 mph90%29.12 "Hg11 mi
5:00 PM29 °FOvercast.3 mph88%29.09 "Hg11 mi
Weather by CustomWeather, © 2014

See weather overviewHow to use our weather pages